CAW109 FAOR-FACT

Flight info

Callsign CAW109
Flight time N/A
Altitude 36000
Route RAGUL1D RAGUL UQ10 DUMDO UZ26 ERDAS ERDAS1B
Aircraft B738/M-SDE2E3FGHIRWXY/LB1

Departure

Time 2026-05-07 14:57
Airport O.R. Tambo International Airport (FAOR)

Arrival

Time N/A
Airport Cape Town International Airport (FACT)
Time Latitude Longitude Altitude Speed Heading
2026-05-07 14:34 -26.13289 28.23311 5547 ft 0 kts 276°
2026-05-07 14:44 -26.13290 28.23318 3291 ft 2 kts 275°
2026-05-07 14:44 -26.13291 28.23336 3927 ft 2 kts 278°
2026-05-07 14:44 -26.13294 28.23354 4609 ft 2 kts 282°
2026-05-07 14:44 -26.13299 28.23372 5549 ft 2 kts 292°
2026-05-07 14:45 -26.13308 28.23387 5547 ft 2 kts 333°
2026-05-07 14:45 -26.13321 28.23390 5549 ft 1 kts
2026-05-07 14:45 -26.13323 28.23390 5548 ft 0 kts
2026-05-07 14:47 -26.13317 28.23391 5549 ft 2 kts
2026-05-07 14:47 -26.13282 28.23396 5547 ft 8 kts
2026-05-07 14:47 -26.13221 28.23403 5548 ft 9 kts
2026-05-07 14:48 -26.13157 28.23412 5546 ft 9 kts 10°
2026-05-07 14:48 -26.13116 28.23459 5545 ft 9 kts 79°
2026-05-07 14:48 -26.13119 28.23527 5542 ft 9 kts 98°
2026-05-07 14:48 -26.13126 28.23593 5544 ft 8 kts 96°
2026-05-07 14:49 -26.13130 28.23657 5542 ft 8 kts 86°
2026-05-07 14:49 -26.13102 28.23708 5546 ft 8 kts 34°
2026-05-07 14:49 -26.13051 28.23727 5542 ft 8 kts 15°
2026-05-07 14:49 -26.12996 28.23744 5543 ft 10 kts 15°
2026-05-07 14:50 -26.12906 28.23772 5541 ft 17 kts 15°
2026-05-07 14:50 -26.12779 28.23811 5538 ft 19 kts 15°
2026-05-07 14:50 -26.12657 28.23848 5536 ft 18 kts 15°
2026-05-07 14:50 -26.12537 28.23887 5534 ft 18 kts 17°
2026-05-07 14:51 -26.12421 28.23921 5535 ft 17 kts 16°
2026-05-07 14:51 -26.12309 28.23956 5535 ft 16 kts 15°
2026-05-07 14:51 -26.12202 28.23988 5529 ft 16 kts 15°
2026-05-07 14:51 -26.12099 28.24020 5528 ft 15 kts 16°
2026-05-07 14:52 -26.12000 28.24051 5526 ft 14 kts 15°
2026-05-07 14:52 -26.11905 28.24081 5524 ft 14 kts 16°
2026-05-07 14:52 -26.11815 28.24109 5523 ft 13 kts 16°
2026-05-07 14:52 -26.11728 28.24137 5522 ft 13 kts 16°
2026-05-07 14:53 -26.11643 28.24162 5521 ft 12 kts 15°
2026-05-07 14:53 -26.11560 28.24187 5519 ft 12 kts 15°
2026-05-07 14:53 -26.11480 28.24212 5518 ft 12 kts 15°
2026-05-07 14:53 -26.11402 28.24237 5517 ft 12 kts 14°
2026-05-07 14:54 -26.11325 28.24259 5516 ft 11 kts 20°
2026-05-07 14:54 -26.11251 28.24284 5515 ft 11 kts 14°
2026-05-07 14:54 -26.11180 28.24304 5513 ft 11 kts 15°
2026-05-07 14:54 -26.11110 28.24326 5512 ft 10 kts 16°
2026-05-07 14:55 -26.11042 28.24348 5511 ft 10 kts 16°
2026-05-07 14:55 -26.10976 28.24368 5510 ft 10 kts 15°
2026-05-07 14:55 -26.10919 28.24404 5509 ft 9 kts 50°
2026-05-07 14:55 -26.10887 28.24468 5508 ft 10 kts 62°
2026-05-07 14:56 -26.10855 28.24535 5506 ft 10 kts 69°
2026-05-07 14:56 -26.10880 28.24594 5506 ft 10 kts 171°
2026-05-07 14:56 -26.10945 28.24577 5507 ft 10 kts 199°
2026-05-07 14:56 -26.11034 28.24548 5510 ft 31 kts 195°
2026-05-07 14:57 -26.11453 28.24419 5519 ft 93 kts 195°
2026-05-07 14:57 -26.11960 28.24264 5524 ft 130 kts 195°
2026-05-07 14:57 -26.12960 28.23936 5739 ft 159 kts 198°
2026-05-07 14:57 -26.14442 28.23490 6681 ft 169 kts 197°
2026-05-07 14:58 -26.15582 28.23140 7376 ft 174 kts 199°
2026-05-07 14:58 -26.16413 28.22868 7548 ft 193 kts 199°
2026-05-07 14:58 -26.17780 28.22427 7743 ft 217 kts 199°
2026-05-07 14:58 -26.19314 28.21941 7983 ft 239 kts 198°
2026-05-07 14:59 -26.21006 28.21418 8267 ft 263 kts 198°
2026-05-07 14:59 -26.22790 28.20872 8884 ft 266 kts 198°
2026-05-07 14:59 -26.24590 28.20324 9114 ft 270 kts 198°
2026-05-07 14:59 -26.26413 28.19771 9152 ft 271 kts 198°
2026-05-07 15:00 -26.28122 28.18967 9152 ft 265 kts 219°
2026-05-07 15:00 -26.29331 28.17464 9167 ft 262 kts 241°
2026-05-07 15:00 -26.29968 28.15570 9156 ft 263 kts 259°
2026-05-07 15:00 -26.30021 28.13522 9169 ft 265 kts 270°
2026-05-07 15:01 -26.29920 28.11468 9162 ft 266 kts 271°
2026-05-07 15:01 -26.29802 28.09413 9165 ft 266 kts 271°
2026-05-07 15:01 -26.29686 28.07351 9168 ft 267 kts 271°
2026-05-07 15:01 -26.29576 28.05285 9166 ft 268 kts 271°
2026-05-07 15:02 -26.29469 28.03214 9154 ft 268 kts 271°
2026-05-07 15:02 -26.29366 28.01142 9161 ft 268 kts 271°
2026-05-07 15:02 -26.29264 27.99075 9160 ft 267 kts 270°
2026-05-07 15:02 -26.29164 27.97019 9164 ft 267 kts 271°
2026-05-07 15:03 -26.29063 27.94947 9163 ft 267 kts 270°
2026-05-07 15:03 -26.29279 27.92924 9168 ft 264 kts 251°
2026-05-07 15:03 -26.29996 27.91031 9662 ft 267 kts 244°
2026-05-07 15:03 -26.30827 27.89179 10530 ft 268 kts 243°
2026-05-07 15:04 -26.31708 27.87259 10821 ft 291 kts 244°
2026-05-07 15:04 -26.32664 27.85166 11023 ft 315 kts 244°
2026-05-07 15:04 -26.33669 27.82950 11592 ft 323 kts 244°
2026-05-07 15:04 -26.34683 27.80698 12308 ft 328 kts 244°
2026-05-07 15:05 -26.35707 27.78413 13063 ft 331 kts 245°
2026-05-07 15:05 -26.36723 27.76132 13801 ft 334 kts 245°
2026-05-07 15:05 -26.37760 27.73799 14464 ft 337 kts 245°
2026-05-07 15:05 -26.38803 27.71449 15148 ft 339 kts 246°
2026-05-07 15:06 -26.39866 27.69051 15844 ft 341 kts 246°
2026-05-07 15:06 -26.40905 27.66702 16485 ft 344 kts 246°
2026-05-07 15:06 -26.41966 27.64306 17146 ft 346 kts 246°
2026-05-07 15:06 -26.43039 27.61882 17796 ft 349 kts 246°
2026-05-07 15:07 -26.44117 27.59448 18436 ft 351 kts 246°
2026-05-07 15:07 -26.45449 27.57137 18938 ft 360 kts 233°
2026-05-07 15:07 -26.47222 27.55136 19495 ft 365 kts 229°
2026-05-07 15:07 -26.49078 27.53175 20027 ft 369 kts 228°
2026-05-07 15:08 -26.50955 27.51219 20545 ft 372 kts 228°
2026-05-07 15:08 -26.52854 27.49234 21071 ft 375 kts 228°
2026-05-07 15:08 -26.54760 27.47229 21593 ft 377 kts 228°
2026-05-07 15:08 -26.56670 27.45206 22096 ft 380 kts 229°
2026-05-07 15:09 -26.58593 27.43160 22580 ft 383 kts 229°
2026-05-07 15:09 -26.60532 27.41090 23069 ft 386 kts 229°
2026-05-07 15:09 -26.62476 27.39009 23535 ft 389 kts 229°
2026-05-07 15:09 -26.64442 27.36904 23955 ft 392 kts 229°
2026-05-07 15:10 -26.66416 27.34788 24362 ft 394 kts 229°
2026-05-07 15:10 -26.68396 27.32665 24787 ft 396 kts 229°
2026-05-07 15:10 -26.70387 27.30529 25203 ft 397 kts 229°
2026-05-07 15:10 -26.72385 27.28383 25600 ft 399 kts 229°
2026-05-07 15:11 -26.74393 27.26226 25981 ft 401 kts 229°
2026-05-07 15:11 -26.76412 27.24055 26359 ft 403 kts 230°
2026-05-07 15:11 -26.78435 27.21880 26743 ft 405 kts 230°
2026-05-07 15:11 -26.80478 27.19682 27111 ft 407 kts 230°
2026-05-07 15:12 -26.82518 27.17487 27467 ft 409 kts 230°
2026-05-07 15:12 -26.84579 27.15266 27820 ft 411 kts 230°
2026-05-07 15:12 -26.86613 27.13075 28152 ft 413 kts 230°
2026-05-07 15:12 -26.88689 27.10837 28496 ft 415 kts 230°
2026-05-07 15:13 -26.90775 27.08587 28820 ft 417 kts 230°
2026-05-07 15:13 -26.92862 27.06334 29140 ft 419 kts 230°
2026-05-07 15:13 -26.94962 27.04067 29525 ft 419 kts 230°
2026-05-07 15:13 -26.97052 27.01797 30025 ft 416 kts 230°
2026-05-07 15:14 -26.99112 26.99540 30505 ft 413 kts 231°
2026-05-07 15:14 -27.01160 26.97286 30887 ft 412 kts 231°
2026-05-07 15:14 -27.03202 26.95032 31206 ft 412 kts 231°
2026-05-07 15:14 -27.05244 26.92777 31530 ft 412 kts 231°
2026-05-07 15:15 -27.07289 26.90521 31906 ft 411 kts 231°
2026-05-07 15:15 -27.09318 26.88282 32271 ft 410 kts 231°
2026-05-07 15:15 -27.11353 26.86036 32587 ft 410 kts 231°
2026-05-07 15:15 -27.13380 26.83797 32909 ft 409 kts 231°
2026-05-07 15:16 -27.15409 26.81557 33245 ft 408 kts 232°
2026-05-07 15:16 -27.17433 26.79322 33576 ft 408 kts 232°
2026-05-07 15:16 -27.19453 26.77088 33902 ft 407 kts 232°
2026-05-07 15:16 -27.21470 26.74858 34204 ft 407 kts 232°
2026-05-07 15:17 -27.23459 26.72656 34461 ft 406 kts 232°
2026-05-07 15:17 -27.25474 26.70425 34696 ft 407 kts 232°
2026-05-07 15:17 -27.27488 26.68194 34942 ft 406 kts 232°
2026-05-07 15:17 -27.29501 26.65963 35201 ft 406 kts 232°
2026-05-07 15:18 -27.31506 26.63739 35445 ft 406 kts 232°
2026-05-07 15:18 -27.33516 26.61509 35664 ft 406 kts 232°
2026-05-07 15:18 -27.35519 26.59285 35909 ft 405 kts 232°
2026-05-07 15:18 -27.37529 26.57052 36135 ft 405 kts 232°
2026-05-07 15:19 -27.41566 26.52560 36127 ft 410 kts 232°
2026-05-07 15:19 -27.45616 26.48056 36117 ft 406 kts 232°
2026-05-07 15:20 -27.49607 26.43615 36137 ft 403 kts 232°
2026-05-07 15:20 -27.53580 26.39183 36129 ft 401 kts 232°
2026-05-07 15:21 -27.57539 26.34760 36122 ft 401 kts 232°
2026-05-07 15:21 -27.61499 26.30333 36134 ft 401 kts 232°
2026-05-07 15:22 -27.65463 26.25897 36124 ft 401 kts 232°
2026-05-07 15:22 -27.69427 26.21456 36128 ft 402 kts 232°
2026-05-07 15:23 -27.73406 26.16994 36127 ft 404 kts 232°
2026-05-07 15:23 -27.77368 26.12546 36130 ft 405 kts 232°
2026-05-07 15:24 -27.80044 26.09540 36127 ft 406 kts 232°